[[{"header":{"parameterUnit":"m.s-1","parameterCategory":1,"la1":30.2991,"la2":30.254,"lo1":-89.0895,"lo2":-89.0444,"dy":0.0017,"dx":0.0017,"nx":28,"ny":28,"refTime":"2023-09-21T03:00:00:Z","depth":0,"parameterNumber":2,"parameterNumberName":"U-component_of_WINDS"},"data":[0,0,0,0,0,0,0,0,0,0,0,0,0,0,0,0,0,0,0,0,0,0,0,0,0,0,0,0,0,0,0,0,0,0,0,0,0,0,0,0,0,0,0,0,0,0,0,0,0,0,0,0,0,0,0,0,0,0,-3.2931,-3.2933,0,-3.3085,-3.3087,-3.3089,-3.301,-3.3006,-3.3002,-3.2998,-3.3158,-3.3166,-3.3174,0,0,0,0,0,0,0,0,0,0,0,0,0,-3.2571,-3.2578,-3.2931,-3.2933,-3.2935,-3.3085,-3.3087,-3.3089,-3.3011,-3.3006,-3.3001,-3.2996,-3.3155,-3.3165,-3.3174,0,0,0,0,0,0,0,0,0,0,0,0,0,-3.2727,-3.258,-3.2931,-3.2914,-3.2914,-3.3085,-3.3087,-3.309,-3.3012,-3.3006,-3.3,-3.2994,-3.3152,-3.3164,-3.3176,-3.3372,0,0,-3.3212,-3.3218,0,0,0,0,0,0,0,0,-3.2718,-3.274,-3.2914,-3.2915,-3.2916,-3.3022,-3.3019,-3.3185,-3.3014,-3.2975,-3.2998,-3.2991,-3.3118,-3.3132,-3.3175,-3.338,-3.3387,-3.3214,-3.3221,-3.3226,-3.3229,0,0,0,0,0,0,0,-3.2707,-3.2733,-3.2992,-3.2917,-3.2918,-3.2899,-3.2915,-3.305,-3.3079,-3.2978,-3.2972,-3.2992,-3.3117,-3.3163,-3.3178,-3.3389,-3.3213,-3.3224,-3.3231,-3.3236,-3.3766,-3.3773,0,0,0,0,0,0,-3.2697,-3.2724,-3.2987,-3.2997,-3.28,-3.2911,-3.2928,-3.2994,-3.3077,-3.3084,-3.2997,-3.2987,-3.3146,-3.3164,-3.3183,-3.3421,-3.3226,-3.3237,-3.3244,-3.3759,-3.3768,-3.3775,0,0,0,0,0,0,-3.269,-3.2721,-3.2981,-3.2859,-3.2891,-3.2923,-3.2999,-3.3,-3.3047,-3.3091,-3.3096,-3.3039,-3.3141,-3.3166,-3.3326,-3.3425,-3.3243,-3.3254,-3.3751,-3.3762,-3.3771,-3.3897,0,0,0,0,0,0,-3.268,-3.2719,-3.2793,-3.2861,-3.2898,-3.3121,-3.3004,-3.3008,-3.3067,-3.3057,-3.3132,-3.3138,-3.3139,-3.3309,-3.3338,-3.3439,-3.3263,-3.3743,-3.3756,-3.3768,-3.3884,-3.391,-3.3933,0,0,0,0,0,-3.2667,-3.2822,-3.2797,-3.283,-3.2991,-3.3127,-3.3148,-3.3144,-3.3076,-3.3151,-3.318,-3.3136,-3.3409,-3.3326,-3.3358,-3.3464,-3.3736,-3.3752,-3.3767,-3.3873,-3.3905,-3.3932,0,0,0,0,0,0,-3.2765,-3.2831,-3.2804,-3.2986,-3.3051,-3.3113,-3.3208,-3.3178,-3.3264,-3.3251,-3.3243,-3.3261,-3.3428,-3.3461,-3.3367,-3.366,-3.3562,-3.3585,-3.3632,-3.3663,-3.3687,-3.3676,-3.3273,0,0,0,0,0,-3.2807,-3.2912,-3.2964,-3.3119,-3.3153,-3.3176,-3.3235,-3.3226,-3.3294,-3.3322,-3.3362,-3.343,-3.3532,-3.3599,-3.3694,-3.3888,-3.3905,-3.3977,-3.4001,-3.4021,-3.4041,-3.4149,-3.4183,-3.3826,-3.3826,-3.3825,0,0,-3.2897,-3.2946,-3.3012,-3.314,-3.319,-3.3299,-3.3199,-3.3319,-3.34,-3.334,-3.3494,-3.3527,-3.3602,-3.3781,-3.3862,-3.3814,-3.4144,-3.4041,-3.4056,-3.4066,-3.4169,-3.4202,-3.4232,-3.3836,-3.3834,-3.3833,0,0,-3.3116,-3.3162,-3.3298,-3.3351,-3.3427,-3.3442,-3.3474,-3.3542,-3.3561,-3.3716,-3.3674,-3.3771,-3.3945,-3.4001,-3.4053,-3.4296,-3.4259,-3.4327,-3.4454,-3.456,-3.4588,-3.4613,-3.4702,-3.4734,-3.4347,-3.4347,-3.4347,0,-3.3217,-3.338,-3.3372,-3.3496,-3.3554,-3.3505,-3.3643,-3.3694,-3.3799,-3.3841,-3.3786,-3.4006,-3.4053,-3.4246,-3.4305,-3.4348,-3.4386,-3.4319,-3.4584,-3.4609,-3.4633,-3.4718,-3.4751,-3.4355,-3.4354,-3.4353,-3.4353,0,-3.3502,-3.3615,-3.3716,-3.3819,-3.3888,-3.4019,-3.4032,-3.4104,-3.409,-3.4111,-3.427,-3.4325,-3.4433,-3.4477,-3.4465,-3.467,-3.4638,-3.4584,-3.4486,-3.4675,-3.4755,-3.4787,-3.4366,-3.4364,-3.4361,-3.4359,0,0,-3.3787,-3.3885,-3.3922,-3.3969,-3.4051,-3.414,-3.4268,-3.4373,-3.4436,-3.451,-3.462,-3.4769,-3.4721,-3.4779,-3.4772,-3.4865,-3.5057,-3.48,-3.4801,-3.4848,-3.5289,-3.5331,-3.5369,-3.5033,-3.5039,-3.5044,-3.5284,0,-3.4013,-3.4239,-3.4237,-3.4446,-3.4552,-3.4507,-3.462,-3.4684,-3.4707,-3.4801,-3.4826,-3.4933,-3.4859,-3.4895,-3.4984,-3.5015,-3.5146,-3.4997,-3.5136,-3.5142,-3.5121,-3.541,-3.5454,-3.5678,-3.5315,-3.532,-3.5324,0,-3.4307,-3.4392,-3.4612,-3.4681,-3.4726,-3.4827,-3.4924,-3.5014,-3.5086,-3.5096,-3.5163,-3.5143,-3.5276,-3.5173,-3.5358,-3.5256,-3.5313,-3.5337,-3.5346,-3.536,-3.5245,-3.5434,-3.5749,-3.5783,-3.5372,-3.5368,-3.5365,0,-3.4496,-3.4665,-3.4819,-3.4861,-3.4944,-3.5017,-3.5055,-3.5121,-3.5185,-3.527,-3.5312,-3.5411,-3.5467,-3.5545,-3.5553,-3.5477,-3.574,-3.5637,-3.5754,-3.5754,-3.5812,-3.5809,-3.6143,-3.5846,-3.5845,-3.5845,-3.5844,0,-3.4751,-3.4888,-3.4906,-3.5001,-3.5154,-3.515,-3.5302,-3.5334,-3.5394,-3.5495,-3.5462,-3.5558,-3.5562,-3.5661,-3.5668,-3.5821,-3.5846,-3.5859,-3.586,-3.5863,-3.5862,-3.5902,-3.5887,-3.5854,-3.5852,-3.585,-3.5848,0,-3.4988,-3.5005,-3.5171,-3.5237,-3.5257,-3.5367,-3.5424,-3.5515,-3.5535,-3.5665,-3.5695,-3.5727,-3.5842,-3.5857,-3.5991,-3.5996,-3.6181,-3.6164,-3.6158,-3.6156,-3.6273,-3.6262,-3.6645,-3.6696,-3.6364,-3.6367,-3.637,0,-3.515,-3.5255,-3.5332,-3.5398,-3.5441,-3.5546,-3.5612,-3.5613,-3.5683,-3.5774,-3.5855,-3.5967,-3.6057,-3.6243,-3.6279,-3.6382,-3.6369,-3.6496,-3.6385,-3.6386,-3.6374,-3.6369,-3.638,-3.6518,-3.6522,-3.6525,-3.6527,0,-3.5437,-3.5441,-3.5536,-3.5636,-3.5715,-3.5793,-3.5867,-3.5923,-3.5934,-3.6014,-3.6132,-3.6201,-3.6339,-3.6452,-3.6554,-3.6594,-3.6565,-3.6562,-3.6595,-3.6601,-3.6594,-3.6602,-3.6219,-3.6554,-3.6551,-3.6549,-3.6548,-3.6547,-3.5643,-3.5735,-3.5805,-3.5913,-3.5969,-3.6039,-3.6129,-3.6161,-3.6258,-3.6371,-3.6366,-3.6496,-3.6567,-3.6702,-3.675,-3.6853,-3.6811,-3.6858,-3.687,-3.6883,-3.6896,-3.6576,-3.6871,-3.687,-3.6869,-3.6869,-3.6868,0,-3.593,-3.5973,-3.6072,-3.6177,-3.6263,-3.6226,-3.6306,-3.6381,-3.6496,-3.6565,-3.6654,-3.6791,-3.69,-3.6945,-3.7053,-3.7126,-3.7116,-3.7155,-3.715,-3.7161,-3.6925,-3.6887,-3.7162,-3.7162,-3.7162,-3.7162,-3.7162,-3.7162,-3.6089,-3.6244,-3.6257,-3.6439,-3.6481,-3.6608,-3.6658,-3.6723,-3.6778,-3.6932,-3.7023,-3.7051,-3.7112,-3.7224,-3.7323,-3.7334,-3.7376,-3.7423,-3.7427,-3.7207,-3.7177,-3.7149,-3.7113,-3.7431,-3.7431,-3.7655,-3.7657,-3.7658]},{"header":{"parameterUnit":"m.s-1","parameterCategory":1,"la1":30.2991,"la2":30.254,"lo1":-89.0895,"lo2":-89.0444,"dy":0.0017,"dx":0.0017,"nx":28,"ny":28,"refTime":"2023-09-21T03:00:00:Z","depth":0,"parameterNumber":3,"parameterNumberName":"V-component_of_WINDS"},"data":[0,0,0,0,0,0,0,0,0,0,0,0,0,0,0,0,0,0,0,0,0,0,0,0,0,0,0,0,0,0,0,0,0,0,0,0,0,0,0,0,0,0,0,0,0,0,0,0,0,0,0,0,0,0,0,0,0,0,-2.3655,-2.3654,0,-2.3616,-2.3616,-2.3616,-2.3552,-2.3551,-2.3549,-2.3548,-2.3511,-2.3511,-2.3511,0,0,0,0,0,0,0,0,0,0,0,0,0,-2.3672,-2.3672,-2.3655,-2.3654,-2.3654,-2.3617,-2.3616,-2.3615,-2.3552,-2.3551,-2.3549,-2.3548,-2.3511,-2.3511,-2.3511,0,0,0,0,0,0,0,0,0,0,0,0,0,-2.3652,-2.3672,-2.3655,-2.3618,-2.3614,-2.3617,-2.3616,-2.3615,-2.3552,-2.3551,-2.3549,-2.3547,-2.3511,-2.3511,-2.3511,-2.3547,0,0,-2.3511,-2.3511,0,0,0,0,0,0,0,0,-2.3653,-2.3652,-2.3624,-2.362,-2.3616,-2.3587,-2.3608,-2.3593,-2.3553,-2.3576,-2.3548,-2.3546,-2.3538,-2.3535,-2.3532,-2.3546,-2.3544,-2.3511,-2.3511,-2.3511,-2.3511,0,0,0,0,0,0,0,-2.3655,-2.3653,-2.364,-2.3623,-2.3619,-2.3602,-2.3598,-2.3605,-2.3567,-2.3574,-2.3569,-2.3565,-2.3535,-2.3532,-2.3531,-2.3543,-2.3511,-2.3511,-2.3512,-2.3512,-2.3581,-2.3583,0,0,0,0,0,0,-2.3662,-2.3654,-2.3641,-2.3638,-2.3631,-2.3604,-2.3598,-2.3598,-2.3567,-2.356,-2.3567,-2.3562,-2.3533,-2.3531,-2.3529,-2.3568,-2.3511,-2.3512,-2.3512,-2.358,-2.3582,-2.3584,0,0,0,0,0,0,-2.3662,-2.3661,-2.3642,-2.3645,-2.3641,-2.3605,-2.3606,-2.3598,-2.3595,-2.3562,-2.3555,-2.3571,-2.3531,-2.3529,-2.3542,-2.3566,-2.3512,-2.3512,-2.3578,-2.358,-2.3583,-2.3647,0,0,0,0,0,0,-2.3663,-2.3662,-2.3676,-2.3646,-2.3642,-2.3657,-2.3607,-2.3599,-2.3595,-2.3589,-2.3563,-2.3557,-2.353,-2.3543,-2.3543,-2.3565,-2.3512,-2.3575,-2.3579,-2.3582,-2.3642,-2.3651,-2.3659,0,0,0,0,0,-2.3664,-2.3696,-2.3677,-2.3675,-2.3658,-2.3658,-2.3656,-2.3623,-2.3598,-2.3611,-2.3589,-2.3558,-2.3563,-2.3544,-2.3544,-2.3567,-2.3574,-2.3578,-2.3582,-2.3639,-2.3649,-2.3658,0,0,0,0,0,0,-2.3731,-2.3692,-2.367,-2.3694,-2.368,-2.3648,-2.3664,-2.3636,-2.3629,-2.3624,-2.3584,-2.3578,-2.3596,-2.3583,-2.3563,-2.3599,-2.3563,-2.3568,-2.3607,-2.3617,-2.3625,-2.3628,-2.3512,0,0,0,0,0,-2.3748,-2.3752,-2.3717,-2.3741,-2.3735,-2.3701,-2.37,-2.3675,-2.3659,-2.3653,-2.3632,-2.3618,-2.3616,-2.3616,-2.3612,-2.364,-2.3632,-2.3655,-2.3663,-2.367,-2.3674,-2.3685,-2.3694,-2.3597,-2.3597,-2.3597,0,0,-2.3785,-2.3764,-2.3769,-2.3754,-2.3741,-2.3744,-2.3696,-2.3703,-2.3705,-2.3654,-2.3665,-2.3649,-2.363,-2.365,-2.3658,-2.364,-2.3699,-2.3675,-2.3681,-2.3681,-2.369,-2.3699,-2.3707,-2.3599,-2.3599,-2.3598,0,0,-2.3853,-2.3838,-2.3855,-2.3841,-2.3821,-2.3797,-2.3801,-2.3772,-2.3759,-2.3769,-2.373,-2.3732,-2.373,-2.3717,-2.3711,-2.377,-2.3741,-2.3771,-2.3813,-2.3825,-2.3832,-2.3839,-2.3858,-2.3866,-2.3775,-2.3775,-2.3775,0,-2.3901,-2.3905,-2.3868,-2.3875,-2.3869,-2.3822,-2.3838,-2.3827,-2.3807,-2.3804,-2.3783,-2.3777,-2.3762,-2.3777,-2.3791,-2.3788,-2.379,-2.3773,-2.3834,-2.384,-2.3846,-2.3864,-2.3872,-2.3778,-2.3778,-2.3777,-2.3777,0,-2.3963,-2.3967,-2.3983,-2.3962,-2.3958,-2.3971,-2.3935,-2.3935,-2.391,-2.3888,-2.3897,-2.3876,-2.3866,-2.3868,-2.3845,-2.3879,-2.3868,-2.3841,-2.3805,-2.3859,-2.3875,-2.3882,-2.3783,-2.3782,-2.3781,-2.378,0,0,-2.4075,-2.4031,-2.4038,-2.4027,-2.3999,-2.4,-2.4009,-2.3998,-2.3998,-2.3985,-2.3991,-2.3989,-2.3963,-2.3955,-2.393,-2.394,-2.3986,-2.3911,-2.391,-2.3925,-2.402,-2.4039,-2.4048,-2.3966,-2.3967,-2.3968,-2.4021,0,-2.4136,-2.4149,-2.4114,-2.4136,-2.4137,-2.409,-2.4098,-2.4081,-2.406,-2.4058,-2.4035,-2.4033,-2.4,-2.3995,-2.4002,-2.3979,-2.4004,-2.3974,-2.397,-2.3971,-2.3976,-2.4057,-2.4078,-2.4129,-2.4027,-2.4028,-2.4029,0,-2.421,-2.4198,-2.4219,-2.4187,-2.4186,-2.4194,-2.418,-2.4178,-2.4157,-2.4141,-2.4131,-2.4101,-2.4106,-2.4071,-2.4077,-2.4058,-2.4054,-2.4042,-2.4043,-2.4041,-2.4003,-2.4056,-2.4145,-2.4152,-2.4039,-2.4038,-2.4037,0,-2.4287,-2.4277,-2.4287,-2.4279,-2.4243,-2.4248,-2.4234,-2.4211,-2.4206,-2.4193,-2.4189,-2.4178,-2.4172,-2.4163,-2.413,-2.4108,-2.4139,-2.4102,-2.4125,-2.4126,-2.4134,-2.4134,-2.4222,-2.4133,-2.4133,-2.4133,-2.4133,0,-2.4358,-2.4373,-2.4321,-2.4327,-2.4341,-2.43,-2.4315,-2.4296,-2.4275,-2.4276,-2.4236,-2.4238,-2.4194,-2.4191,-2.4165,-2.4172,-2.417,-2.4157,-2.415,-2.416,-2.4162,-2.4157,-2.4152,-2.4135,-2.4134,-2.4134,-2.4134,0,-2.4447,-2.4413,-2.4421,-2.4384,-2.4375,-2.4387,-2.4356,-2.436,-2.4335,-2.4337,-2.4335,-2.4297,-2.429,-2.4256,-2.4242,-2.4224,-2.4241,-2.4227,-2.4248,-2.4243,-2.4268,-2.4265,-2.4356,-2.4364,-2.4271,-2.4272,-2.4272,0,-2.4495,-2.4505,-2.4468,-2.4465,-2.4452,-2.4449,-2.4442,-2.4402,-2.4397,-2.4372,-2.4378,-2.4368,-2.4358,-2.435,-2.4321,-2.431,-2.4295,-2.4327,-2.4293,-2.4302,-2.4293,-2.4293,-2.4293,-2.4334,-2.4336,-2.4337,-2.4337,0,-2.4583,-2.4565,-2.4557,-2.4542,-2.4535,-2.4522,-2.4507,-2.4507,-2.4462,-2.4458,-2.445,-2.4442,-2.4426,-2.4417,-2.44,-2.4384,-2.4353,-2.4348,-2.4352,-2.4363,-2.4374,-2.4367,-2.4267,-2.4346,-2.4345,-2.4345,-2.4344,-2.4344,-2.4652,-2.4657,-2.4631,-2.4623,-2.4607,-2.4592,-2.4593,-2.4567,-2.456,-2.4544,-2.452,-2.4515,-2.4491,-2.4465,-2.4451,-2.4446,-2.4428,-2.4436,-2.4437,-2.4439,-2.4444,-2.4375,-2.4443,-2.4443,-2.4442,-2.4442,-2.4442,0,-2.4737,-2.4717,-2.471,-2.4688,-2.4681,-2.4651,-2.4631,-2.4627,-2.4623,-2.4603,-2.4593,-2.4583,-2.4572,-2.4541,-2.4527,-2.4529,-2.4514,-2.4527,-2.4526,-2.4522,-2.4461,-2.4458,-2.4539,-2.4539,-2.4539,-2.4539,-2.4538,-2.4538,-2.478,-2.4786,-2.4764,-2.4761,-2.4741,-2.4735,-2.4726,-2.4712,-2.4696,-2.4686,-2.4676,-2.4655,-2.463,-2.4614,-2.4602,-2.4593,-2.4589,-2.4606,-2.4593,-2.4536,-2.4527,-2.4518,-2.4515,-2.4606,-2.4606,-2.4654,-2.4654,-2.4655]}]]